Tracking 20942 objects as of 14-Jul-2020
HD Live streaming from Space Station
objects crossing your sky now

COSMOS 1974

Track COSMOS 1974 now!
COSMOS 1974 is classified as:


NORAD ID: 19554
Int'l Code: 1988-092A
Perigee: 6,851.9 km
Apogee: 33,558.6 km
Inclination: 69.9 °
Period: 718.6 minutes
Semi major axis: 26576 km
RCS: 16.1296 m2 (large)
Launch date: October 3, 1988
Source: Commonwealth of Independent States (former USSR) (CIS)
Launch site: PLESETSK MISSILE AND SPACE COMPLEX (PKMTR)
aabbcc
Your satellite tracking list
Your tracking list is empty




NASA's NSSDC Master Catalog

Two Line Element Set (TLE):
1 19554U 88092A   20194.25850260 +.00000347 +00000-0 +00000-0 0  9999
2 19554 069.8714 265.1827 5024539 123.1576 345.7898 02.00383909232695
Source of the keplerian elements: AFSPC